Theta_e
314 314 313 315 313 311 315 316 315 316 320 319 320 318 318 325 319 317 330 330 331 331 332 333 330 329 328 327 324 321 318 314 305 304 304 304 304 304 304 304 304 304 304 304 304 304 304 304 303
311 312 313 315 311 312 311 312 315 315 320 323 321 322 323 327 331 331 330 331 332 333 332 331 330 329 327 325 323 320 317 308 304 304 304 304 305 305 305 304 304 304 304 305 305 305 305 305 305
310 311 314 308 307 311 312 313 312 318 323 318 321 323 325 327 329 329 330 329 333 333 331 330 330 328 323 324 322 319 313 305 304 305 305 305 305 305 305 305 305 305 304 304 304 305 310 306 304
310 311 310 308 311 310 311 311 315 317 317 317 321 324 328 328 327 328 328 330 332 333 331 329 328 326 323 323 321 317 308 305 305 306 306 305 305 305 305 305 304 304 304 305 309 309 307 307 306
310 311 306 307 307 307 307 309 315 316 316 318 321 321 327 328 327 327 328 329 331 331 330 329 327 325 324 322 319 313 306 305 306 306 306 305 305 304 305 304 304 307 311 314 311 313 313 312 312
310 308 306 308 306 306 305 309 314 314 315 316 320 323 327 329 329 327 330 329 331 329 328 327 326 318 323 321 317 309 306 306 306 307 306 305 304 305 304 304 305 309 310 311 312 310 308 307 309
307 304 306 306 306 307 308 310 310 311 314 315 321 321 325 328 329 328 329 330 331 330 327 326 323 319 322 319 314 308 306 306 307 307 306 305 305 305 304 305 305 307 310 312 311 313 308 308 308
310 303 305 305 307 309 309 310 313 312 315 317 322 320 323 325 329 329 330 331 331 330 328 326 319 320 321 318 313 308 306 306 307 307 306 304 305 304 305 305 308 309 309 308 309 309 308 308 308
309 305 305 308 306 308 308 309 311 312 313 316 317 318 320 324 327 330 331 331 331 330 328 323 316 319 320 317 313 308 307 307 308 307 306 304 305 304 305 308 310 309 308 309 309 309 308 309 308
305 304 306 305 303 306 308 307 309 311 311 315 319 320 321 324 325 328 329 329 330 329 326 323 316 318 319 317 313 309 307 307 308 307 305 305 304 304 306 310 309 309 308 309 309 310 310 310 309
304 304 304 307 308 308 308 308 308 308 309 312 316 318 320 325 326 327 327 327 325 326 325 321 316 318 318 316 313 309 308 308 308 307 304 305 304 305 309 310 309 308 308 309 310 309 306 309 309
307 306 305 307 309 308 307 308 308 308 310 311 312 315 319 323 323 324 325 325 326 325 324 321 316 317 317 315 312 310 309 308 308 307 304 305 304 306 310 309 308 308 309 310 309 307 308 309 312
306 307 307 307 308 308 308 307 307 308 310 310 311 312 317 320 322 323 324 325 325 325 323 321 317 316 316 315 313 311 309 309 308 307 304 305 304 307 310 309 308 308 310 310 309 310 312 313 313
307 307 307 308 308 308 307 306 307 309 310 310 309 310 311 316 317 322 324 324 324 323 323 322 319 318 317 316 314 312 310 309 309 307 304 305 304 308 310 309 308 308 310 309 310 312 314 314 313
307 306 305 305 306 305 306 304 304 309 309 309 309 309 308 309 315 317 317 320 322 321 322 322 320 318 318 316 315 313 311 310 309 308 304 305 304 309 310 309 309 309 310 310 310 312 316 314 313
306 305 304 304 302 306 306 305 303 307 306 308 308 308 308 308 308 311 315 319 321 322 321 323 321 319 319 318 316 314 311 311 309 308 304 305 304 309 310 310 308 309 310 310 311 312 315 314 312
302 302 302 303 301 304 302 303 302 305 306 305 306 307 308 308 309 309 310 314 318 320 321 322 321 319 319 319 317 315 312 311 310 308 304 305 304 309 310 310 309 309 310 310 311 312 315 315 314
302 303 301 302 303 303 303 301 301 304 305 305 306 307 307 308 308 309 309 310 314 318 320 321 320 319 320 320 318 315 313 312 310 309 304 305 304 308 311 310 309 309 311 310 311 312 315 316 316
302 301 301 301 302 304 302 302 304 303 303 304 307 307 308 309 309 309 308 309 311 315 318 319 319 319 320 321 318 316 314 312 311 309 305 305 304 308 311 310 309 309 311 311 311 312 315 316 317
301 302 302 303 303 303 303 302 302 301 301 304 306 307 308 309 309 309 308 308 309 312 317 317 318 319 320 320 318 316 314 313 311 309 306 305 304 307 310 310 309 309 311 311 312 313 316 316 316
302 303 302 305 304 303 302 302 304 303 302 304 305 308 308 308 309 309 308 308 309 309 314 316 317 319 320 321 321 317 314 313 312 310 307 304 304 306 310 311 310 309 311 311 312 314 314 316 316
304 302 303 304 304 304 302 306 303 304 302 301 304 305 308 310 310 310 310 308 308 310 311 314 316 319 321 322 322 318 315 313 313 311 307 304 304 306 310 310 310 309 311 311 312 314 315 316 317
305 303 303 303 304 305 304 303 304 302 304 305 307 308 310 310 309 309 310 310 309 310 310 311 315 319 321 322 322 319 316 314 313 311 308 303 305 305 309 310 310 309 310 311 313 314 315 316 317
304 305 305 305 305 304 306 306 307 307 307 307 306 308 309 309 310 310 308 307 307 309 309 310 313 318 321 323 323 320 317 315 313 312 309 303 305 305 308 310 310 310 310 311 312 313 315 315 317
305 305 300 307 301 310 302 304 311 307 305 305 307 307 308 308 308 308 308 307 307 309 310 310 311 316 320 323 323 321 318 315 314 312 309 303 305 305 308 310 311 310 310 310 312 313 314 315 316
304 307 306 307 304 307 302 306 307 304 307 307 307 307 309 308 307 308 308 308 307 308 310 310 310 314 319 322 323 321 318 316 314 313 308 303 305 304 307 310 311 310 310 310 311 312 314 315 316
304 307 306 304 294 305 305 303 305 305 305 304 304 306 308 309 308 307 307 306 306 308 309 310 311 315 319 321 322 321 318 316 314 313 308 303 305 304 307 309 311 310 310 309 311 313 314 315 315
305 306 309 304 303 307 307 305 309 308 308 306 305 303 307 308 308 308 307 306 307 308 309 310 312 314 319 321 322 320 318 316 314 313 308 303 305 305 306 308 310 310 310 309 310 312 313 314 315
304 307 306 306 306 308 304 306 303 309 308 307 306 306 308 308 308 308 307 306 307 308 310 311 313 316 319 321 321 319 317 316 314 313 308 303 305 305 306 308 310 310 310 310 309 310 312 314 315
305 306 305 310 307 302 305 304 303 304 303 305 307 306 306 308 308 308 307 307 308 309 311 313 315 318 319 320 320 319 316 315 314 313 308 303 305 305 305 307 310 310 310 310 310 310 311 313 315
Wind_Speed
5 7 6 2 3 5 4 6 2 2 2 1 4 4 5 3 3 3 16 14 16 14 14 13 10 7 6 7 6 4 3 5 5 4 4 4 5 5 5 6 6 7 8 9 10 12 13 13 13
4 4 2 2 4 2 5 4 5 5 4 12 9 5 2 2 3 8 21 16 14 14 15 14 9 8 8 7 6 3 2 4 4 4 5 5 5 6 6 7 7 8 9 10 11 12 13 14 13
3 2 2 4 3 5 5 4 5 2 14 2 4 3 2 3 5 14 12 15 16 16 15 15 13 10 9 8 5 1 2 3 3 4 5 5 6 7 7 8 8 9 9 10 11 12 12 13 14
4 4 4 4 5 6 6 4 3 2 4 4 5 4 3 2 6 12 13 14 17 17 15 14 14 11 10 7 4 1 2 2 3 4 5 6 7 8 8 9 9 9 9 10 13 12 13 13 13
6 3 3 1 5 6 5 7 4 2 2 3 7 4 3 5 7 9 13 15 16 16 15 14 14 10 10 7 4 2 1 2 3 5 7 8 8 9 9 9 10 11 11 10 11 10 11 13 12
2 4 3 4 6 5 7 8 4 4 2 4 3 8 4 8 7 8 13 15 14 12 14 12 12 10 10 7 5 2 0 2 4 6 7 8 9 9 9 10 11 10 11 11 11 11 12 13 10
5 4 5 4 4 6 5 5 4 5 3 4 6 5 3 11 12 11 14 15 15 13 10 11 11 11 10 7 5 2 0 2 4 6 7 8 9 9 10 11 11 12 10 10 11 12 12 13 14
3 4 5 5 4 6 3 6 2 5 4 5 8 4 3 15 16 16 18 18 16 13 10 10 11 12 11 8 5 2 1 1 3 5 6 8 9 9 11 11 11 12 11 12 13 13 15 15 14
4 3 4 6 7 5 2 2 1 1 4 7 7 5 4 15 18 21 22 22 20 17 13 11 10 13 12 9 6 3 2 0 3 4 6 7 8 9 9 11 12 10 12 13 14 15 16 16 14
3 4 10 6 6 4 3 1 3 1 2 5 7 8 8 16 21 24 26 25 23 19 15 12 11 13 12 10 7 5 3 1 2 4 6 7 7 8 9 11 10 10 11 13 14 17 17 15 14
4 6 4 6 7 5 3 3 3 2 4 9 11 12 13 20 23 24 23 23 19 16 16 13 12 13 12 9 7 6 4 1 2 4 5 6 7 8 9 10 9 9 10 13 15 18 17 15 14
2 8 5 4 7 4 3 3 3 7 6 4 8 10 16 22 25 25 25 24 23 20 16 13 14 14 13 11 8 7 5 3 1 4 5 5 6 7 9 8 8 8 10 14 17 17 16 17 19
4 3 7 14 6 7 7 9 7 15 16 13 10 8 15 21 23 24 23 22 22 22 18 16 15 14 14 12 10 7 5 4 2 3 4 5 5 6 8 7 7 8 10 13 17 17 17 16 20
3 6 6 6 10 8 4 5 4 13 16 23 25 24 20 21 21 25 28 26 26 24 21 18 17 16 15 13 10 8 6 5 3 2 4 4 5 6 7 6 6 6 9 13 15 17 16 17 23
1 2 4 7 6 6 6 8 11 33 29 23 22 22 27 30 26 29 26 27 26 25 23 21 19 18 16 14 11 9 8 6 4 3 3 3 4 5 6 5 6 6 8 11 13 14 16 18 24
3 1 1 4 8 5 11 11 8 15 18 32 27 26 25 26 31 34 30 29 27 27 26 23 22 20 19 16 13 11 9 7 5 4 3 2 3 4 6 5 5 6 6 8 10 12 16 20 23
1 3 6 7 12 3 6 7 7 12 13 19 15 19 22 23 28 29 35 34 30 29 28 26 24 23 21 19 16 13 11 9 8 5 4 1 1 2 5 4 5 5 6 7 9 11 14 19 22
6 4 5 5 3 4 4 12 11 11 7 14 15 17 19 20 21 21 27 30 32 31 30 28 25 24 23 21 18 17 15 13 10 7 5 3 1 1 3 4 5 5 6 7 8 9 11 16 21
4 5 7 4 3 5 7 9 16 15 7 20 30 29 29 31 24 21 20 26 31 33 33 32 30 29 28 28 25 22 19 15 12 9 7 5 2 1 2 3 4 4 6 6 8 8 9 12 17
5 6 6 3 3 5 4 11 14 8 11 22 31 34 34 35 32 27 23 24 30 34 35 33 32 31 31 29 25 21 17 16 14 11 9 7 4 3 1 2 3 5 5 6 7 7 8 7 8
12 13 6 4 1 2 4 7 11 7 12 25 33 40 41 41 39 34 29 27 27 34 36 35 33 32 32 30 28 25 22 19 18 15 11 9 6 5 3 1 3 4 5 6 7 8 6 5 4
16 8 5 2 3 4 2 6 6 6 9 6 22 30 41 44 42 38 34 31 33 33 35 35 34 33 33 31 30 27 24 20 16 13 11 10 8 7 4 2 4 4 5 6 7 8 7 6 6
7 9 12 5 2 3 3 3 6 3 8 14 17 28 34 31 30 27 30 33 33 31 34 35 35 34 34 32 30 28 24 19 15 15 14 12 10 8 6 4 3 5 6 7 7 8 9 8 9
8 8 6 4 3 3 8 7 6 7 10 9 8 13 16 18 21 28 24 24 33 32 32 35 35 36 34 33 31 29 25 22 19 17 16 13 12 10 8 5 3 6 6 7 7 8 9 9 7
6 10 2 1 0 9 3 7 17 9 8 9 9 6 6 8 14 16 26 26 33 35 34 34 34 36 35 35 32 28 26 22 19 16 15 14 13 11 9 6 4 6 6 6 8 8 9 9 9
8 12 6 7 4 3 1 8 7 13 17 15 17 15 15 11 8 15 21 26 33 37 36 34 34 36 36 35 31 28 26 24 20 17 14 13 12 11 10 8 6 7 7 7 9 10 9 10 10
8 12 8 7 2 3 5 8 9 15 15 8 14 17 22 13 7 12 17 22 30 36 37 36 35 35 35 34 31 29 27 26 22 18 16 14 14 14 12 10 8 7 7 7 9 11 11 10 7
13 11 6 1 5 4 5 6 7 7 9 5 4 10 14 13 12 11 16 22 26 31 33 34 33 32 33 32 30 28 27 26 23 21 19 18 17 16 15 12 9 8 7 7 9 12 11 11 9
5 13 5 6 4 6 2 6 9 16 6 4 5 10 9 10 10 10 13 18 21 24 29 32 33 32 32 30 29 28 28 27 25 22 21 19 18 17 16 14 11 10 8 9 9 11 12 12 12
6 9 6 8 9 2 2 6 3 4 8 4 3 5 6 9 11 11 12 14 18 20 23 28 32 32 31 29 29 29 27 28 27 25 22 21 19 18 17 15 12 11 9 9 8 11 14 13 14
Wind_Direction
281 290 297 296 48 59 271 263 270 272 209 223 133 146 178 88 157 196 150 153 153 157 162 183 179 211 219 252 217 228 285 318 336 344 349 353 347 347 342 328 316 304 298 295 294 290 288 285 278
263 279 269 107 94 57 271 253 237 229 165 118 102 100 54 123 121 146 153 154 153 166 173 179 179 196 215 217 204 228 309 329 347 351 2 1 354 350 339 329 319 311 306 303 300 295 291 288 281
228 203 173 97 117 185 231 235 243 233 158 112 108 77 118 146 148 156 162 162 161 174 173 175 177 202 206 184 194 228 318 339 347 0 10 0 354 349 339 332 326 322 318 312 310 311 320 311 306
192 142 68 100 223 252 222 294 228 170 205 206 153 89 125 137 144 166 168 173 166 175 178 184 188 196 176 178 186 225 302 338 1 12 14 3 356 349 345 339 336 331 329 334 345 341 329 325 314
181 127 79 140 256 263 258 266 228 229 232 178 159 184 152 157 143 165 167 171 172 176 185 197 218 177 171 177 183 216 265 9 15 18 13 2 352 351 346 345 344 357 4 6 345 342 340 332 327
151 113 84 228 248 265 283 263 241 211 227 170 154 149 164 180 173 176 175 169 173 189 193 205 223 197 175 179 186 201 227 18 27 18 7 354 349 350 348 349 349 358 3 356 359 354 356 353 338
147 105 199 188 251 297 240 318 223 191 176 216 166 136 211 186 180 181 176 178 181 193 205 216 233 194 182 185 193 196 179 26 23 13 1 349 348 348 351 352 350 350 359 2 5 3 356 352 347
188 95 149 219 200 258 298 317 282 178 198 178 176 195 229 185 178 178 181 186 193 199 213 234 239 191 186 190 197 200 223 33 17 4 353 348 348 354 360 355 356 4 13 18 20 14 6 356 351
172 77 202 211 160 241 317 9 313 245 181 194 204 208 200 181 180 181 186 192 198 203 216 229 233 193 190 196 202 209 227 38 5 353 349 349 354 3 2 359 5 14 18 17 11 10 4 358 351
134 156 215 204 192 203 283 210 295 344 202 223 220 216 203 184 189 191 196 199 202 207 213 221 216 201 196 201 206 212 219 303 345 344 347 351 358 6 7 5 12 20 21 20 20 13 7 4 7
189 211 219 245 215 187 221 264 229 167 254 227 220 218 196 187 196 202 206 212 213 211 215 220 211 204 204 207 212 212 212 221 326 332 345 353 3 10 10 12 19 26 26 28 24 22 23 25 19
213 242 210 260 221 192 214 264 269 218 228 291 241 229 207 197 204 210 212 213 212 214 218 218 210 208 206 204 207 210 213 214 297 324 348 357 5 12 11 17 24 39 33 33 27 30 31 39 45
209 246 231 239 248 251 270 256 249 260 252 247 232 228 219 213 215 217 220 221 220 219 218 218 214 210 209 207 206 212 212 217 258 319 341 354 4 14 14 22 33 46 43 40 37 38 41 46 51
218 235 258 266 251 240 229 275 195 259 260 249 242 244 238 231 228 222 221 221 221 221 222 221 217 213 212 212 208 213 212 224 247 295 330 351 359 18 19 26 36 48 50 44 44 41 39 52 58
231 295 304 246 235 244 201 282 229 254 254 255 251 245 242 239 233 233 232 228 225 225 223 224 221 216 215 213 212 215 215 220 236 278 310 345 355 18 19 26 35 52 57 49 49 50 51 62 65
163 116 246 266 166 245 161 257 262 264 250 248 248 247 244 242 238 236 233 234 232 228 226 224 222 220 216 213 214 217 218 221 228 256 280 334 350 22 20 29 42 59 73 60 62 56 49 63 75
350 206 212 307 196 150 191 261 250 244 236 254 246 246 240 243 241 237 233 233 232 232 228 225 224 221 216 212 211 214 219 223 225 235 259 267 329 26 26 32 40 59 95 76 71 66 58 66 75
171 203 232 220 215 180 226 268 270 250 247 262 264 250 241 241 245 245 239 234 231 231 228 227 225 220 214 213 212 214 217 220 220 223 237 237 229 37 29 42 51 77 103 81 79 77 67 73 76
169 169 187 217 231 179 224 253 265 268 235 270 269 264 260 258 251 247 243 235 230 227 224 223 221 217 211 209 210 213 217 217 218 219 225 228 209 206 32 51 64 100 112 94 88 81 85 91 79
168 185 216 276 210 183 270 265 263 256 249 238 253 260 258 257 255 247 239 233 228 226 221 219 219 218 213 214 215 216 214 215 216 219 219 221 204 205 140 62 86 110 127 105 100 98 102 95 93
215 207 173 185 111 232 327 273 258 263 247 254 249 255 258 257 255 250 242 234 228 222 220 218 217 215 215 213 211 212 210 213 216 215 215 215 206 204 173 116 120 122 143 126 107 110 92 87 64
221 144 139 142 76 234 99 283 275 260 261 250 256 247 249 250 249 249 245 232 225 223 219 219 216 214 214 214 214 214 215 214 218 217 217 213 206 204 183 161 145 142 152 146 120 108 98 85 76
214 157 194 182 166 21 203 289 264 277 271 260 254 250 251 251 251 246 238 231 226 222 217 215 214 213 214 213 215 216 214 217 220 215 216 212 209 206 189 183 165 153 161 156 140 116 103 96 92
134 93 63 63 104 273 201 186 229 221 217 246 242 246 257 257 247 238 230 227 215 213 211 211 210 211 212 213 215 215 214 212 213 214 216 211 211 207 195 189 186 164 174 168 158 137 119 116 106
164 139 40 31 27 236 314 194 248 248 253 233 260 256 236 318 248 227 215 210 205 205 206 207 208 210 210 213 214 214 213 213 216 220 219 215 215 208 196 189 186 170 178 174 166 157 140 126 127
178 166 156 181 206 212 141 230 252 236 262 256 260 262 272 266 254 213 207 210 207 203 203 203 204 206 207 210 211 212 211 211 213 216 216 216 216 208 200 192 189 184 183 176 166 168 154 140 124
188 199 165 103 25 85 216 284 282 250 257 240 244 247 247 247 235 201 198 206 206 203 204 203 203 203 205 208 209 208 209 209 210 209 209 208 209 209 203 196 190 191 196 186 170 162 162 155 147
183 158 153 330 142 227 265 280 241 298 271 237 221 231 231 221 213 197 197 201 204 207 207 205 206 205 205 207 208 207 207 208 208 207 209 206 205 207 205 198 192 188 196 196 183 172 166 162 160
149 185 182 118 155 174 203 255 215 225 266 295 223 201 212 193 182 176 181 191 202 207 208 206 205 205 205 207 206 205 206 206 207 208 208 208 207 206 207 201 196 187 183 195 191 183 177 169 166
193 182 157 184 216 226 154 265 344 285 272 278 310 110 172 163 153 155 166 181 191 199 204 205 205 204 205 205 204 206 207 206 207 208 207 207 206 205 206 206 198 195 186 190 199 195 185 177 172